Tracking 29892 objects as of 21-Nov-2024
HD Live streaming from Space Station
objects crossing your sky now

H-2A R/B

Track H-2A R/B now!
10-day predictions


NORAD ID: 29657
Int'l Code: 2006-059B
Perigee: 215.4 km
Apogee: 12,397.7 km
Inclination: 28.6 °
Period: 236.8 minutes
Semi major axis: 12677 km
RCS: 24.5265 m2 (large)
Launch date: December 18, 2006
Source: Japan (JPN)
Launch site: TANEGASHIMA SPACE CENTER (TNSTA)

Note: This is a ROCKET BODY
Your satellite tracking list
Your tracking list is empty




NASA's NSSDC Master Catalog

Two Line Element Set (TLE):
1 29657U 06059B   24325.74376252  .00101909  00000-0  21551-2 0  9997
2 29657  28.6161  88.7521 4804701 159.2289 230.0125  6.08205847282753
Source of the keplerian elements: AFSPC